Overview Statistics Trail Chart Weather Telemetry Raw packets
 

This is the latest recevied weather packets stored in our database for station/object VK4TOM-13. If no packets are shown the sender has not sent any weather packets the latest 10 day(s).

<< 33 34 35 36 37 38 39 >>
Time Temp. Humidity Pressure Rain* Wind** Luminosity Snow
1788074985 21.67° C 70% 1024 hPa 0 mm - - -
1788074384 22.22° C 70% 1023.8 hPa 0 mm - - -
1788073782 22.78° C 70% 1023.8 hPa 0 mm - - -
1788073182 22.78° C 70% 1023.7 hPa 0 mm - - -
1788072581 23.89° C 70% 1023.6 hPa 0 mm - - -
1788071980 24.44° C 70% 1023.5 hPa 0 mm - - -
1788071378 25° C 70% 1023.5 hPa 0 mm - - -
1788070777 25.56° C 70% 1023.4 hPa 0 mm - - -
1788070176 26.11° C 70% 1023.3 hPa 0 mm - - -
1788069989 26.67° C 70% 1023.4 hPa 0 mm - - -
1788069704 26.67° C 70% 1023.4 hPa 0 mm - - -
1788069461 26.67° C 70% 1023.4 hPa 0 mm - - -
1788069198 26.67° C 70% 1023.5 hPa 0 mm - - -
1788068597 27.22° C 70% 1023.4 hPa 0 mm - - -
1788068350 27.22° C 68% 1023.5 hPa 0 mm - - -
1788067760 27.78° C 70% 1023.5 hPa 0 mm - - -
1788067159 27.22° C 70% 1023.6 hPa 0 mm - - -
1788066558 27.22° C 70% 1023.7 hPa 0 mm - - -
1788065956 26.67° C 70% 1023.7 hPa 0 mm - - -
1788065355 27.22° C 70% 1023.9 hPa 0 mm - - -
1788064988 27.22° C 70% 1023.9 hPa 0 mm - - -
1788064703 27.78° C 70% 1023.8 hPa 0 mm - - -
1788064471 27.78° C 70% 1024 hPa 0 mm - - -
1788064219 27.78° C 70% 1024 hPa 0 mm - - -
1788063850 27.22° C 70% 1024 hPa 0 mm - - -

* Rain since midnight (hover to see other rain measurements)
** Current wind speed in m/s (hover to see current wind gust speed)